Location: ???????
(55.3754°N, 39.3545°E)
Time: 06:17:41
(UTC+00:00)

USA 238 DEB - Pass Details

Date: 14 April 2026
Orbit: 883 x 1328 km, 63.4° (Epoch: 10 January)

Event Time Altitude Azimuth Distance (km) Brightness Sun altitude
Rises 17:17:15 0° 308° (NW) 3,868 8.9 -7.5°
Reaches altitude 10° 17:19:47 10° 308° (NW) 2,971 7.7 -7.8°
Maximum altitude 17:26:59 89° 39° (NE) 1,201 4.0 -8.7°
Enters shadow 17:34:38 11° 130° (SE) 3,167 5.5 -9.6°
